SL-8 DEB *, 3745

Orbit data source: Space-Track

SL-8 DEB *, 3745 is space debris in LEO originally from a launch on Mon, 15 Mar 1965 UTC launched from the Tyuratam Missile And Space Complex (TTMTR). Debris objects in space refer to the collection of defunct objects orbiting the Earth. Examples of debris include non-operational satellites, rocket bodies, and fragments generated from explosions, collisions, or faulty payload assembly.

Loading next visibility...
Identifier
3745, 1965-020ET
Orbit
LEO
Country
Flag of CISCIS
Related business
Manufacturer
Unknown
Mission
Spacecraft
Bus & Motor
Unknown
Mass
Unknown
Launch date (UTC)
1965-03-15 (61 years ago)
Launch vehicle
Unknown
Launch site
Tyuratam Missile And Space Complex (TTMTR)
Object type
Payload
Rocket body
Debris
Shape & HBR
Unknown shape, 0.1 m
Radar Cross Section
Medium (>0.1 m² and <1 m²)

Expand to show TLE details & history
Last TLE update: 19 hours ago

TLE from 19 hours ago
0 SL-8 DEB *
1  3745U 65020ET  26177.30443899 -.00000115  00000-0 -12073-3 0  9990
2  3745  56.0197  10.8330 0166303 329.5100 203.9115 12.51032957642124
Epoch: 2026-06-26T07:18Z
TLE epoch observation values (Epoch: 2026-06-26T07:18:23.528Z)
Latitude
6.03629°
Longitude
162.73278°
Altitude
1,580.165 km
Speed
7.025 km/s
True Right ascension
12h 27m 03s
True Declination
6° 00' 15"
Sunlit
Object was in daylight at epoch
Visualization orbit readout
Latitude
Unknown
Longitude
Unknown
Altitude
Unknown
Speed
Unknown
Apparent Right ascension
Unknown
Apparent Declination
Unknown
Sunlit
N/A
Visualization observer readout
Local Sidereal Time
14:01:03
Azimuth
Unknown
Elevation
Unknown
Doppler factor
Unknown
Orbital elements
Apogee altitude
1,590.356 km
Perigee altitude
1,329.655 km
Semi-major axis
7,838.142 km
Eccentricity
0.01663
Inclination
56.0197°
RAAN
10.833°
Arg. of periapsis
329.51°
True anomaly
203.15351°
Mean anomaly
203.9115°
Eccentric anomaly
203.53108°
Mean motion
3.12769 °/min
Orbital period
115.1 mins
BSTAR
-0.00012073
Loading maneuver chart data...
Computing Atmospheric mass density...

Documentation

Showing up to 5 results
|